timestamp,surface_pressure_avg,surface_temp_avg,battery_voltage,lat,long
2021-08-30 00:09:01+00:00,248.4831,9.7,12.81,47.84626,-54.09684
2021-08-30 00:19:01+00:00,251.7314,9.7,12.73,47.84626,-54.09684
2021-08-30 00:29:01+00:00,251.1064,9.72,12.73,47.84626,-54.09684
2021-08-30 00:39:01+00:00,249.3597,9.8,12.73,47.84626,-54.09684
2021-08-30 00:49:01+00:00,249.9864,9.89,12.73,47.84626,-54.09684
2021-08-30 00:59:01+00:00,251.9615,9.96,12.73,47.84626,-54.09684
2021-08-30 01:09:01+00:00,252.218,9.9,12.73,47.84626,-54.09684
2021-08-30 01:19:01+00:00,255.5481,9.9,12.73,47.84626,-54.09684
2021-08-30 01:29:01+00:00,260.4281,9.99,12.73,47.84626,-54.09684
2021-08-30 01:39:01+00:00,264.7464,10.08,12.73,47.84626,-54.09684
2021-08-30 01:49:01+00:00,266.6064,10.3,12.73,47.84626,-54.09684
2021-08-30 01:59:01+00:00,269.7498,11.24,12.73,47.84626,-54.09684
2021-08-30 02:09:01+00:00,273.1514,11.93,12.73,47.84626,-54.09684
2021-08-30 02:19:01+00:00,277.2848,11.68,12.73,47.84626,-54.09684
2021-08-30 02:29:01+00:00,281.0597,9.9,12.73,47.84626,-54.09684
2021-08-30 02:39:01+00:00,284.5381,9.98,12.73,47.84626,-54.09684
2021-08-30 02:49:01+00:00,286.868,9.9,12.73,47.84626,-54.09684
2021-08-30 02:59:01+00:00,290.0781,10.02,12.73,47.84626,-54.09684
2021-08-30 03:09:01+00:00,295.2064,10.35,12.73,47.84626,-54.09684
2021-08-30 03:19:00+00:00,299.5496,10.55,12.65,47.84626,-54.09684
2021-08-30 03:29:00+00:00,301.5547,10.5,12.65,47.84626,-54.09684
2021-08-30 03:39:00+00:00,304.328,10.4,12.65,47.84626,-54.09684
2021-08-30 03:49:00+00:00,307.9463,9.82,12.65,47.84626,-54.09684
2021-08-30 03:59:00+00:00,310.2097,9.06,12.65,47.84626,-54.09684
2021-08-30 04:09:00+00:00,310.21299999999997,8.71,12.65,47.84626,-54.09684
2021-08-30 04:19:00+00:00,310.2796,8.6,12.73,47.84626,-54.09684
2021-08-30 04:29:00+00:00,309.573,8.75,12.73,47.84626,-54.09684
2021-08-30 04:39:00+00:00,309.0781,8.77,12.73,47.84626,-54.09684
2021-08-30 04:49:00+00:00,308.7413,8.19,12.73,47.84626,-54.09684
2021-08-30 04:59:00+00:00,308.438,8.09,12.73,47.84626,-54.09684
2021-08-30 05:09:00+00:00,307.1364,8.3,12.73,47.84626,-54.09684
2021-08-30 05:19:00+00:00,306.4247,8.23,12.65,47.84626,-54.09684
2021-08-30 05:29:00+00:00,305.078,8.41,12.65,47.84626,-54.09684
2021-08-30 05:39:00+00:00,303.8797,8.57,12.65,47.84626,-54.09684
2021-08-30 05:49:00+00:00,306.5214,8.6,12.65,47.84626,-54.09684
2021-08-30 05:59:00+00:00,308.5397,8.49,12.65,47.84626,-54.09684
2021-08-30 06:09:00+00:00,306.0231,8.2,12.65,47.84626,-54.09684
2021-08-30 06:19:00+00:00,301.6047,8.1,12.65,47.84626,-54.09684
2021-08-30 06:29:00+00:00,299.7963,7.7,12.65,47.84626,-54.09684
2021-08-30 06:39:00+00:00,297.3297,7.5,12.65,47.84626,-54.09684
2021-08-30 06:49:00+00:00,293.453,7.4,12.65,47.84626,-54.09684
2021-08-30 06:59:00+00:00,287.3513,7.4,12.65,47.84626,-54.09684
2021-08-30 07:09:00+00:00,281.6447,7.3,12.65,47.84626,-54.09684
2021-08-30 07:19:00+00:00,276.5314,7.3,12.65,47.84626,-54.09684
2021-08-30 07:29:00+00:00,273.3781,8.43,12.65,47.84626,-54.09684
2021-08-30 07:39:00+00:00,270.2047,7.82,12.65,47.84626,-54.09684
2021-08-30 07:49:00+00:00,264.70799999999997,7.56,12.65,47.84626,-54.09684
2021-08-30 07:59:00+00:00,261.0597,7.4,12.65,47.84626,-54.09684
2021-08-30 08:09:00+00:00,259.8164,7.39,12.65,47.84626,-54.09684
2021-08-30 08:19:00+00:00,255.338,7.39,12.65,47.84626,-54.09684
2021-08-30 08:29:00+00:00,246.2564,7.39,12.65,47.84626,-54.09684
2021-08-30 08:39:00+00:00,239.9247,7.48,12.65,47.84626,-54.09684
2021-08-30 08:49:00+00:00,236.1881,7.47,12.65,47.84626,-54.09684
2021-08-30 08:59:00+00:00,230.3431,7.4,12.65,47.84626,-54.09684
2021-08-30 09:09:00+00:00,224.4314,7.3,12.65,47.84626,-54.09684
2021-08-30 09:19:01+00:00,222.1014,7.3,12.65,47.84626,-54.09684
2021-08-30 09:29:01+00:00,221.2414,7.37,12.65,47.84626,-54.09684
2021-08-30 09:39:01+00:00,218.7865,7.37,12.65,47.84626,-54.09684
2021-08-30 09:49:01+00:00,217.6614,7.35,12.65,47.84626,-54.09684
2021-08-30 09:59:01+00:00,219.8648,7.3,12.65,47.84626,-54.09684
2021-08-30 10:09:01+00:00,221.1231,7.3,12.65,47.84626,-54.09684
2021-08-30 10:19:01+00:00,218.3931,7.3,12.89,47.84626,-54.09684
2021-08-30 10:29:01+00:00,215.9665,7.2,12.89,47.84626,-54.09684
2021-08-30 10:39:01+00:00,219.0081,7.2,12.89,47.84626,-54.09684
2021-08-30 10:49:01+00:00,224.8914,7.2,12.89,47.84626,-54.09684
2021-08-30 10:59:01+00:00,228.3381,7.3,12.89,47.84626,-54.09684
2021-08-30 11:09:01+00:00,230.5247,7.37,12.89,47.84626,-54.09684
2021-08-30 11:19:01+00:00,232.8798,7.37,12.97,47.84626,-54.09684
2021-08-30 11:29:01+00:00,237.4648,7.38,12.97,47.84626,-54.09684
2021-08-30 11:39:01+00:00,241.0547,7.4,12.97,47.84626,-54.09684
2021-08-30 11:49:01+00:00,243.7064,7.41,12.97,47.84626,-54.09684
2021-08-30 11:59:01+00:00,247.6931,7.5,12.97,47.84626,-54.09684
2021-08-30 12:09:01+00:00,253.2431,7.5,12.97,47.84626,-54.09684
2021-08-30 12:19:01+00:00,256.0031,7.3,14.0,47.84626,-54.09684
2021-08-30 12:29:01+00:00,256.798,7.29,14.0,47.84626,-54.09684
2021-08-30 12:39:01+00:00,257.3281,7.2,14.0,47.84626,-54.09684
2021-08-30 12:49:01+00:00,260.1747,7.2,14.0,47.84626,-54.09684
2021-08-30 12:59:01+00:00,264.0663,7.2,14.0,47.84626,-54.09684
2021-08-30 13:09:01+00:00,262.2647,7.2,14.0,47.84626,-54.09684
2021-08-30 13:19:01+00:00,260.0797,7.2,14.56,47.84626,-54.09684
2021-08-30 13:29:01+00:00,263.1814,7.2,14.56,47.84626,-54.09684
2021-08-30 13:39:01+00:00,266.7297,7.2,14.56,47.84626,-54.09684
2021-08-30 13:49:01+00:00,266.3581,7.23,14.56,47.84626,-54.09684
2021-08-30 13:59:01+00:00,268.1115,7.29,14.56,47.84626,-54.09684
2021-08-30 14:09:01+00:00,272.793,7.53,14.56,47.84626,-54.09684
2021-08-30 14:19:01+00:00,276.9881,7.95,14.56,47.84626,-54.09684
2021-08-30 14:29:01+00:00,280.7381,7.18,14.56,47.84626,-54.09684
2021-08-30 14:39:01+00:00,286.7631,7.17,14.56,47.84626,-54.09684
2021-08-30 14:49:01+00:00,291.6681,7.2,14.56,47.84626,-54.09684
2021-08-30 14:59:01+00:00,296.3748,7.2,14.56,47.84626,-54.09684
2021-08-30 15:09:01+00:00,302.8914,7.2,14.56,47.84626,-54.09684
2021-08-30 15:19:01+00:00,309.4997,7.29,14.48,47.84626,-54.09684
2021-08-30 15:29:01+00:00,312.2728,7.3,14.48,47.84626,-54.09684
2021-08-30 15:39:01+00:00,312.9181,7.3,14.48,47.84626,-54.09684
2021-08-30 15:49:01+00:00,315.1379,7.25,14.48,47.84626,-54.09684
2021-08-30 15:59:01+00:00,319.1079,7.2,14.48,47.84626,-54.09684
2021-08-30 16:09:01+00:00,321.3763,7.2,14.48,47.84626,-54.09684
2021-08-30 16:19:01+00:00,323.3747,7.2,14.4,47.84626,-54.09684
2021-08-30 16:29:01+00:00,325.6047,7.2,14.4,47.84626,-54.09684
2021-08-30 16:39:01+00:00,324.473,7.2,14.4,47.84626,-54.09684
2021-08-30 16:49:01+00:00,326.3248,7.2,14.4,47.84626,-54.09684
2021-08-30 16:59:01+00:00,329.028,7.2,14.4,47.84626,-54.09684
2021-08-30 17:09:01+00:00,329.2463,7.2,14.4,47.84626,-54.09684
2021-08-30 17:19:01+00:00,325.1147,7.23,14.24,47.84626,-54.09684
2021-08-30 17:29:01+00:00,324.4215,7.2,14.24,47.84626,-54.09684
2021-08-30 17:39:01+00:00,324.9965,7.0,14.24,47.84626,-54.09684
2021-08-30 17:49:01+00:00,322.6828,6.9,14.24,47.84626,-54.09684
2021-08-30 17:59:01+00:00,321.3113,6.89,14.24,47.84626,-54.09684
2021-08-30 18:09:01+00:00,321.3429,6.74,14.24,47.84626,-54.09684
2021-08-30 18:19:01+00:00,321.5131,6.6,14.08,47.84626,-54.09684
2021-08-30 18:29:01+00:00,321.2197,6.6,14.08,47.84626,-54.09684
2021-08-30 18:39:01+00:00,318.548,6.5,14.08,47.84626,-54.09684
2021-08-30 18:49:01+00:00,316.063,6.5,14.08,47.84626,-54.09684
2021-08-30 18:59:01+00:00,314.4514,6.4,14.08,47.84626,-54.09684
2021-08-30 19:09:01+00:00,312.2898,6.4,14.08,47.84626,-54.09684
2021-08-30 19:19:01+00:00,308.3713,6.49,13.76,47.84626,-54.09684
2021-08-30 19:29:01+00:00,303.5114,6.5,13.76,47.84626,-54.09684
2021-08-30 19:39:01+00:00,297.498,6.5,13.76,47.84626,-54.09684
2021-08-30 19:49:01+00:00,290.7964,6.59,13.76,47.84626,-54.09684
2021-08-30 19:59:01+00:00,285.6397,6.66,13.76,47.84626,-54.09684
2021-08-30 20:09:01+00:00,283.2529,6.7,13.76,47.84626,-54.09684
2021-08-30 20:19:01+00:00,278.7847,6.7,13.68,47.84626,-54.09684
2021-08-30 20:29:01+00:00,272.1764,6.7,13.68,47.84626,-54.09684
2021-08-30 20:39:01+00:00,267.003,6.7,13.68,47.84626,-54.09684
2021-08-30 20:49:01+00:00,264.438,6.7,13.68,47.84626,-54.09684
2021-08-30 20:59:01+00:00,259.1764,6.7,13.68,47.84626,-54.09684
2021-08-30 21:09:01+00:00,254.1881,6.7,13.68,47.84626,-54.09684
2021-08-30 21:19:01+00:00,251.5131,6.7,13.44,47.84626,-54.09684
2021-08-30 21:29:01+00:00,249.2198,6.7,13.44,47.84626,-54.09684
2021-08-30 21:39:01+00:00,245.0348,6.74,13.44,47.84626,-54.09684
2021-08-30 21:49:01+00:00,243.8314,6.78,13.44,47.84626,-54.09684
2021-08-30 21:59:01+00:00,241.3264,6.8,13.44,47.84626,-54.09684
2021-08-30 22:09:01+00:00,236.5314,6.8,13.44,47.84626,-54.09684
2021-08-30 22:19:01+00:00,233.6314,6.8,13.21,47.84626,-54.09684
2021-08-30 22:29:01+00:00,235.5914,6.8,13.21,47.84626,-54.09684
2021-08-30 22:39:01+00:00,235.2614,6.84,13.21,47.84626,-54.09684
2021-08-30 22:49:01+00:00,232.9081,6.88,13.21,47.84626,-54.09684
2021-08-30 22:59:01+00:00,233.3515,6.89,13.21,47.84626,-54.09684
2021-08-30 23:09:01+00:00,234.8598,6.9,13.21,47.84626,-54.09684
2021-08-30 23:19:01+00:00,235.7664,6.9,12.89,47.84626,-54.09684
2021-08-30 23:29:01+00:00,236.5115,6.9,12.89,47.84626,-54.09684
2021-08-30 23:39:01+00:00,237.3298,6.93,12.89,47.84626,-54.09684
2021-08-30 23:49:01+00:00,236.9698,6.98,12.89,47.84626,-54.09684
2021-08-30 23:59:01+00:00,236.208,7.0,12.89,47.84626,-54.09684
